| time (UTC) | temp F | wind direction | speed MPH | gust MPH | rain 1hr in | rain 24hr in | rain mn in | humidity % | barometer mb |
| 20260904193009 | 76 | 115 | 1.0 | 6.0 | 1.05 | 2.21 | 2.21 | 96 | 1016.5 |
| 20260904191513 | 77 | 195 | 2.0 | 3.0 | 1.54 | 2.14 | 2.13 | 96 | 1016.8 |
| 20260904190031 | 76 | 181 | 1.0 | 4.0 | 1.84 | 2.04 | 2.02 | 95 | 1017.1 |
| 20260904184521 | 76 | 19 | 4.0 | 9.0 | 1.95 | 1.97 | 1.95 | 95 | 1016.5 |
| 20260904183026 | 77 | 289 | 4.0 | 12.0 | 1.15 | 1.16 | 1.15 | 94 | 1017.2 |
| 20260904181512 | 76 | 330 | 13.0 | 20.0 | 0.58 | 0.61 | 0.58 | 93 | 1016.4 |
| 20260904180002 | 81 | 283 | 11.0 | 14.0 | 0.18 | 0.20 | 0.18 | 86 | 1016.9 |
| 20260904174505 | 85 | 52 | 5.0 | 14.0 | 0.00 | 0.02 | 0.00 | 80 | 1016.3 |
| 20260904173004 | 87 | 68 | 5.0 | 12.0 | 0.00 | 0.02 | 0.00 | 81 | 1016.3 |
| 20260904171505 | 86 | 39 | 6.0 | 13.0 | 0.00 | 0.02 | 0.00 | 79 | 1016.4 |
| 20260904170007 | 91 | 183 | 3.0 | 10.0 | 0.00 | 0.03 | 0.00 | 70 | 1016.4 |
| 20260904164503 | 91 | 181 | 1.0 | 8.0 | 0.00 | 0.03 | 0.00 | 72 | 1016.6 |
| 20260904163007 | 89 | 136 | 1.0 | 7.0 | 0.00 | 0.03 | 0.00 | 75 | 1016.9 |
| 20260904161505 | 87 | 82 | 2.0 | 3.0 | 0.00 | 0.03 | 0.00 | 77 | 1017.2 |
| 20260904160006 | 87 | 151 | 3.0 | 5.0 | 0.00 | 0.03 | 0.00 | 77 | 1017.4 |
| 20260904154514 | 87 | 75 | 2.0 | 5.0 | 0.00 | 0.03 | 0.00 | 79 | 1017.6 |
| 20260904153007 | 87 | 89 | 1.0 | 4.0 | 0.00 | 0.03 | 0.00 | 78 | 1017.5 |
| 20260904151517 | 86 | 60 | 1.0 | 6.0 | 0.00 | 0.03 | 0.00 | 80 | 1017.3 |
| 20260904150008 | 86 | 69 | 2.0 | 7.0 | 0.00 | 0.03 | 0.00 | 82 | 1017.3 |
| 20260904144510 | 85 | 158 | 2.0 | 5.0 | 0.00 | 0.03 | 0.00 | 84 | 1017.3 |
| 20260904143014 | 85 | 69 | 1.0 | 3.0 | 0.00 | 0.03 | 0.00 | 85 | 1017.3 |
| 20260904141514 | 83 | 212 | 4.0 | 5.0 | 0.00 | 0.03 | 0.00 | 87 | 1017.2 |
| 20260904140006 | 84 | 207 | 3.0 | 6.0 | 0.00 | 0.03 | 0.00 | 87 | 1017.1 |
| 20260904134514 | 83 | 172 | 1.0 | 4.0 | 0.00 | 0.03 | 0.00 | 90 | 1017.0 |
| 20260904133016 | 82 | 192 | 2.0 | 5.0 | 0.00 | 0.03 | 0.00 | 91 | 1017.0 |
| 20260904131503 | 80 | 162 | 0.0 | 3.0 | 0.00 | 0.03 | 0.00 | 94 | 1017.0 |
| 20260904130007 | 79 | 54 | 0.0 | 2.0 | 0.00 | 0.03 | 0.00 | 96 | 1017.1 |
| 20260904124508 | 78 | 50 | 1.0 | 2.0 | 0.00 | 0.03 | 0.00 | 97 | 1017.0 |
| 20260904123015 | 77 | 50 | 0.0 | 2.0 | 0.00 | 0.03 | 0.00 | 97 | 1017.0 |
| 20260904121518 | 77 | 50 | 0.0 | 2.0 | 0.00 | 0.03 | 0.00 | 97 | 1017.0 |
| 20260904120004 | 76 | 50 | 1.0 | 1.0 | 0.00 | 0.03 | 0.00 | 96 | 1016.9 |
| 20260904114510 | 75 | 50 | 0.0 | 0.0 | 0.00 | 0.03 | 0.00 | 96 | 1016.7 |
| 20260904113017 | 75 | 51 | 0.0 | 0.0 | 0.00 | 0.03 | 0.00 | 96 | 1016.5 |
| 20260904111522 | 75 | 51 | 0.0 | 0.0 | 0.00 | 0.03 | 0.00 | 96 | 1016.3 |
| 20260904110025 | 75 | 51 | 0.0 | 0.0 | 0.00 | 0.03 | 0.00 | 96 | 1016.1 |
| 20260904104508 | 75 | 51 | 0.0 | 0.0 | 0.00 | 0.03 | 0.00 | 96 | 1016.0 |
| 20260904103012 | 75 | 51 | 0.0 | 0.0 | 0.00 | 0.03 | 0.00 | 96 | 1016.0 |
| 20260904101524 | 75 | 51 | 0.0 | 0.0 | 0.00 | 0.03 | 0.00 | 96 | 1016.1 |
| 20260904100027 | 75 | 51 | 0.0 | 0.0 | 0.00 | 0.03 | 0.00 | 96 | 1016.0 |
| 20260904094526 | 76 | 51 | 0.0 | 0.0 | 0.00 | 0.03 | 0.00 | 96 | 1016.1 |
| 20260904093012 | 76 | 51 | 0.0 | 0.0 | 0.00 | 0.03 | 0.00 | 96 | 1016.0 |
| 20260904091521 | 76 | 51 | 0.0 | 0.0 | 0.00 | 0.03 | 0.00 | 96 | 1015.8 |
| 20260904090004 | 76 | 51 | 0.0 | 0.0 | 0.00 | 0.03 | 0.00 | 96 | 1015.8 |
| 20260904084506 | 76 | 51 | 0.0 | 2.0 | 0.00 | 0.03 | 0.00 | 96 | 1015.8 |
| 20260904083010 | 75 | 51 | 0.0 | 0.0 | 0.00 | 0.03 | 0.00 | 96 | 1015.8 |
| 20260904081519 | 75 | 51 | 0.0 | 0.0 | 0.00 | 0.03 | 0.00 | 96 | 1015.7 |
| 20260904080003 | 76 | 51 | 0.0 | 0.0 | 0.00 | 0.03 | 0.00 | 96 | 1015.7 |
| 20260904074503 | 76 | 51 | 0.0 | 1.0 | 0.00 | 0.03 | 0.00 | 96 | 1015.7 |
| 20260904073010 | 76 | 51 | 0.0 | 2.0 | 0.00 | 0.03 | 0.00 | 95 | 1015.5 |
| 20260904071515 | 76 | 165 | 0.0 | 0.0 | 0.00 | 0.03 | 0.00 | 95 | 1015.6 |
| 20260904070027 | 76 | 165 | 0.0 | 0.0 | 0.00 | 0.03 | 0.00 | 95 | 1015.7 |
| 20260904064503 | 76 | 165 | 0.0 | 0.0 | 0.00 | 0.03 | 0.00 | 95 | 1015.6 |
| 20260904063008 | 76 | 165 | 0.0 | 2.0 | 0.00 | 0.03 | 0.00 | 95 | 1015.8 |
| 20260904061514 | 76 | 165 | 0.0 | 0.0 | 0.00 | 0.03 | 0.00 | 95 | 1016.0 |
| 20260904060021 | 76 | 165 | 0.0 | 2.0 | 0.00 | 0.03 | 0.00 | 95 | 1016.1 |
| 20260904054536 | 77 | 165 | 0.0 | 2.0 | 0.00 | 0.03 | 0.00 | 95 | 1016.4 |
| 20260904053005 | 77 | 165 | 0.0 | 0.0 | 0.00 | 0.03 | 0.00 | 95 | 1016.4 |
| 20260904051511 | 77 | 165 | 0.0 | 2.0 | 0.00 | 0.03 | 0.00 | 95 | 1016.6 |
| 20260904050018 | 77 | 123 | 0.0 | 2.0 | 0.00 | 0.03 | 0.00 | 95 | 1016.7 |
| 20260904044532 | 77 | 196 | 1.0 | 2.0 | 0.00 | 0.03 | 0.00 | 95 | 1016.6 |
| 20260904043006 | 77 | 174 | 0.0 | 2.0 | 0.00 | 0.03 | 0.00 | 95 | 1016.5 |
| 20260904041511 | 77 | 166 | 0.0 | 2.0 | 0.00 | 0.03 | 0.00 | 94 | 1016.6 |
| 20260904040014 | 77 | 194 | 0.0 | 2.0 | 0.00 | 0.03 | 0.00 | 94 | 1016.6 |
| 20260904034523 | 77 | 194 | 0.0 | 2.0 | 0.00 | 0.03 | 0.03 | 94 | 1016.8 |
| 20260904033031 | 78 | 194 | 0.0 | 2.0 | 0.00 | 0.03 | 0.03 | 94 | 1016.6 |
| 20260904031506 | 78 | 194 | 1.0 | 2.0 | 0.00 | 0.03 | 0.03 | 94 | 1016.6 |
| 20260904030014 | 78 | 20 | 1.0 | 2.0 | 0.00 | 0.03 | 0.03 | 93 | 1016.3 |
| 20260904024524 | 78 | 80 | 0.0 | 2.0 | 0.00 | 0.03 | 0.03 | 93 | 1016.5 |
| 20260904023027 | 79 | 63 | 0.0 | 2.0 | 0.00 | 0.03 | 0.03 | 92 | 1016.3 |
| 20260904021538 | 79 | 89 | 0.0 | 2.0 | 0.00 | 0.03 | 0.03 | 92 | 1016.4 |
| 20260904020009 | 79 | 72 | 1.0 | 3.0 | 0.00 | 0.03 | 0.03 | 91 | 1016.6 |
| 20260904014502 | 79 | 86 | 1.0 | 2.0 | 0.00 | 0.03 | 0.03 | 90 | 1016.5 |
| 20260904013003 | 80 | 83 | 0.0 | 2.0 | 0.00 | 0.03 | 0.03 | 90 | 1016.3 |
| 20260904011504 | 80 | 37 | 1.0 | 2.0 | 0.00 | 0.03 | 0.03 | 89 | 1016.2 |
| 20260904010032 | 80 | 70 | 0.0 | 2.0 | 0.00 | 0.03 | 0.03 | 89 | 1016.4 |
| 20260904004532 | 80 | 96 | 2.0 | 3.0 | 0.00 | 0.03 | 0.03 | 89 | 1016.2 |
| 20260904003035 | 81 | 62 | 2.0 | 5.0 | 0.00 | 0.03 | 0.03 | 88 | 1016.1 |
| 20260904001528 | 82 | 60 | 3.0 | 5.0 | 0.00 | 0.03 | 0.03 | 87 | 1016.1 |
| 20260904000006 | 82 | 94 | 1.0 | 3.0 | 0.00 | 0.03 | 0.03 | 86 | 1016.0 |
| 20260903234512 | 83 | 98 | 1.0 | 4.0 | 0.00 | 0.03 | 0.03 | 84 | 1015.9 |
| 20260903233032 | 83 | 70 | 2.0 | 6.0 | 0.00 | 0.03 | 0.03 | 82 | 1015.7 |
| 20260903231540 | 84 | 82 | 2.0 | 6.0 | 0.00 | 0.03 | 0.03 | 81 | 1015.9 |
| 20260903230035 | 85 | 123 | 4.0 | 8.0 | 0.00 | 0.03 | 0.03 | 79 | 1015.6 |
| 20260903224514 | 85 | 23 | 4.0 | 7.0 | 0.00 | 0.03 | 0.03 | 79 | 1015.3 |
| 20260903223018 | 85 | 77 | 3.0 | 7.0 | 0.00 | 0.03 | 0.03 | 78 | 1015.4 |
| 20260903221527 | 86 | 101 | 4.0 | 7.0 | 0.00 | 0.03 | 0.03 | 78 | 1015.1 |
| 20260903220006 | 86 | 96 | 3.0 | 11.0 | 0.00 | 0.03 | 0.03 | 75 | 1015.3 |
| 20260903214534 | 86 | 90 | 6.0 | 9.0 | 0.00 | 0.03 | 0.03 | 79 | 1015.3 |
| 20260903213017 | 86 | 85 | 4.0 | 7.0 | 0.00 | 0.03 | 0.03 | 78 | 1015.3 |
| 20260903211543 | 86 | 56 | 4.0 | 9.0 | 0.00 | 0.03 | 0.03 | 78 | 1015.3 |
| 20260903210007 | 86 | 137 | 4.0 | 11.0 | 0.00 | 0.03 | 0.03 | 77 | 1015.3 |
| 20260903204508 | 85 | 103 | 5.0 | 13.0 | 0.00 | 0.03 | 0.03 | 78 | 1015.5 |
| 20260903203015 | 85 | 79 | 6.0 | 10.0 | 0.00 | 0.03 | 0.03 | 80 | 1015.7 |
| 20260903201535 | 84 | 115 | 5.0 | 11.0 | 0.01 | 0.03 | 0.03 | 85 | 1015.8 |
| 20260903200005 | 82 | 97 | 3.0 | 8.0 | 0.02 | 0.03 | 0.03 | 90 | 1016.1 |
| 20260903194536 | 81 | 128 | 4.0 | 7.0 | 0.02 | 0.03 | 0.03 | 90 | 1016.3 |